EGACEGNS

Guest
Details From EGAC - Belfast City
To EGNS - Isle Of Man Ronaldsway
Flight Number -
Tags Generated
Created
Modified
Stats Distance 54 nm / 100 km
Max Altitude 0 ft / 0 m
Waypoints 2
Social Downloads 3
Likes 0
Share VATSIM

Download

Looking for another format? Having issues loading an existing format? Contact us
Advertisement - Login to hide

Notes

Generated

Route

EGAC EGNS

ID Type Via Altitude Latitude Longitude Leg Dist Tot Dist Heading (true) Name
O EGAC APT - 0 ft / 0 m 54.61136˚ -5.88072˚ - 0 nm - -
O EGNS APT - 0 ft / 0 m 54.07778˚ -4.63167˚ 54 nm 54 nm 126° / 127° Isle Of Man Ronaldsway

Altitude Profile

Advertisement - Login to hide

EGAC

Details ICAO EGAC (BHD)
Name Belfast City
Region United Kingdom
Timezone Europe/London (UTC+0.0)
Stats Elevation 15 ft / 5 m (AMSL)
Location 54.618108° -5.872575°
Runways 1
Magnetic Variation 3.089° W

METAR

EGAC 172320Z AUTO VRB01KT 9999 SCT033/// BKN039/// 06/05 Q1024

Decode

TAF

Not found

Departure Runways

ID Width Length Bearing (true) Bearing (mag) Surface Threshold Offset Overrun Length
04 148 ft / 45 m 6,009 ft / 1,832 m 34.93° 38.02° Asphalt 302 ft / 92 m 0 ft / 0 m
22 148 ft / 45 m 6,009 ft / 1,832 m 214.94° 218.03° Asphalt 0 ft / 0 m 0 ft / 0 m

EGNS

Details ICAO EGNS (IOM)
Name Isle Of Man Ronaldsway
Region United Kingdom
Timezone Europe/Isle_of_Man (UTC+0.0)
Stats Elevation 52 ft / 16 m (AMSL)
Location 54.082833° -4.625475°
Runways 2
Magnetic Variation 2.487° W

METAR

EGNS 172250Z 29009KT 260V320 9999 SCT040 08/05 Q1023

Decode

TAF

Not found

Destination Runways

ID Width Length Bearing (true) Bearing (mag) Surface Threshold Offset Overrun Length
03 151 ft / 46 m 4,113 ft / 1,254 m 27.91° 30.40° Asphalt 492 ft / 150 m 0 ft / 0 m
08 151 ft / 46 m 6,016 ft / 1,834 m 77.93° 80.42° Asphalt 545 ft / 166 m 0 ft / 0 m
21 151 ft / 46 m 4,113 ft / 1,254 m 207.92° 210.41° Asphalt 0 ft / 0 m 0 ft / 0 m
26 151 ft / 46 m 6,016 ft / 1,834 m 257.95° 260.44° Asphalt 486 ft / 148 m 0 ft / 0 m

Approach Navaids

Runway Type Ident Frequency Range Bearing (true) Bearing (mag) Slope Elevation
08 Localiser IRH 111.15 MHz 18 nm / 33 km 82.35° 84.84° - 29 ft / 9 m (AMSL)
08 Glidescope IRH 111.15 MHz 10 nm / 19 km 82.35° 84.84° 3.00° 33 ft / 10 m (AMSL)
08 DME IRH 111.15 MHz 18 nm / 33 km - - - 33 ft / 10 m (AMSL)
26 Localiser IRY 111.15 MHz 18 nm / 33 km 257.92° 260.41° - 29 ft / 9 m (AMSL)
26 Glidescope IRY 111.15 MHz 10 nm / 19 km 257.94° 260.43° 3.00° 33 ft / 10 m (AMSL)
26 DME IRY 111.15 MHz 18 nm / 33 km - - - 33 ft / 10 m (AMSL)

Popular Alternatives